This is the latest recevied weather packets stored in our database for station/object W6UA-13. If no packets are shown the sender has not sent any weather packets the latest 10 day(s).
| Time | Temp. | Humidity | Pressure | Rain* | Wind** | Luminosity | Snow |
|---|---|---|---|---|---|---|---|
| 1777208698 | 10° C | 90% | 1012 hPa | 0.51 mm | - | 0 W/m² | - |
| 1777207798 | 10° C | 90% | 1011.8 hPa | 0.51 mm | - | 0 W/m² | - |
| 1777206898 | 10° C | 90% | 1011.8 hPa | 0.51 mm | - | 0 W/m² | - |
| 1777205998 | 10° C | 90% | 1011.8 hPa | 0.51 mm | - | 0 W/m² | - |
| 1777205098 | 10° C | 90% | 1011.6 hPa | 0.51 mm | - | 0 W/m² | - |
| 1777204198 | 10° C | 90% | 1011.7 hPa | 0.51 mm | - | 0 W/m² | - |
| 1777203298 | 10° C | 90% | 1011.8 hPa | 0.51 mm | - | 0 W/m² | - |
| 1777202399 | 10° C | 90% | 1011.8 hPa | 0.51 mm | - | 0 W/m² | - |
| 1777201499 | 10° C | 90% | 1011.7 hPa | 0.51 mm | - | 0 W/m² | - |
| 1777200599 | 10° C | 90% | 1011.7 hPa | 0.51 mm | - | 0 W/m² | - |
| 1777199698 | 10° C | 90% | 1011.7 hPa | 0.51 mm | - | 0 W/m² | - |
| 1777198799 | 10° C | 90% | 1011.7 hPa | 0.51 mm | - | 0 W/m² | - |
| 1777197898 | 10° C | 90% | 1011.7 hPa | 0.51 mm | - | 0 W/m² | - |
| 1777196999 | 10° C | 90% | 1011.7 hPa | 0.51 mm | - | 0 W/m² | - |
| 1777196099 | 10° C | 90% | 1011.7 hPa | 0.51 mm | - | 0 W/m² | - |
| 1777195199 | 10° C | 90% | 1011.7 hPa | 0.76 mm | - | 0 W/m² | - |
| 1777194299 | 10° C | 90% | 1011.8 hPa | 0.76 mm | - | 0 W/m² | - |
| 1777193399 | 10° C | 89% | 1011.9 hPa | 1.02 mm | - | 0 W/m² | - |
| 1777192499 | 10.56° C | 89% | 1012 hPa | 1.27 mm | - | 0 W/m² | - |
| 1777191599 | 10.56° C | 89% | 1011.9 hPa | 1.02 mm | - | 0 W/m² | - |
| 1777190699 | 10.56° C | 89% | 1012 hPa | 0.76 mm | - | 0 W/m² | - |
| 1777189799 | 10° C | 89% | 1012.1 hPa | 0.51 mm | - | 0 W/m² | - |
| 1777188899 | 10° C | 89% | 1012.2 hPa | 0 mm | - | 0 W/m² | - |
| 1777187999 | 10.56° C | 89% | 1012 hPa | 0.25 mm | - | 0 W/m² | - |
| 1777187099 | 10.56° C | 89% | 1012.2 hPa | 0.25 mm | - | 0 W/m² | - |
* Rain latest hour (hover to see other rain measurements)
** Current wind speed in m/s (hover to see current wind gust speed)